Home > Time Zones > World Clock > Weather > France > Metz > Past weeks

Flag for France Weather past 2 weeks in Metz, France

Now
57 °F

Clear.


Feels Like: 56 °F
Forecast: 65 / 96 °F
Wind: 7 mph from East

Location: Metz-Nancy-Lorraine

Current Time: Aug 5, 2015 at 4:51:40 AM

Latest Report: Aug 5, 2015 at 4:30 AM


Visibility: 10 mi

Pressure: 30.09 "Hg

Humidity: 94%

Dew point: 55 °F

Location of MetzLocation

Historic Weather in Metz — Graph

°F

Metz temperature yesterday

Maximum temperature yesterday: 75 °F (at 12:30 AM)
Minimum temperature yesterday: 63 °F (at 11:00 PM)
Average temperature yesterday: 69 °F

Past Weeks' High & Low Weather Summary

 TemperatureHumidityPressure
High93 °F (Aug 3, 5:00 PM)100% (Jul 29, 6:00 AM)30.12 "Hg (Jul 29, 6:00 AM)
Low46 °F (Jul 31, 5:30 AM)16% (Aug 1, 5:30 PM)29.68 "Hg (Jul 24, 7:30 PM)
Average68 °F56%29.96 "Hg
* Reported Jul 21 4:00 AM — Aug 5 4:00 AM, Metz, Weather by CustomWeather, © 2015

Note: Actual official high and low records may vary slightly from our data, if they occured in-between our weather recording intervals... More about our weather records

Advertising

Metz weather history for previous 24 hours

 ConditionsComfort  
Time TempWeatherWind HumidityBarometerVisibility
4:00 AM
Wed, Aug 5
57 °FClear.6 mph94%30.09 "Hg10 mi
3:30 AM57 °FClear.8 mph94%30.09 "Hg10 mi
3:00 AM57 °FClear.8 mph94%30.09 "Hg10 mi
2:30 AM59 °FClear.9 mph88%30.09 "Hg10 mi
2:00 AM61 °FClear.9 mph88%30.09 "Hg10 mi
1:30 AM61 °FClear.8 mph83%30.09 "Hg10 mi
1:00 AM61 °FClear.8 mph83%30.09 "Hg10 mi
12:30 AM63 °FClear.5 mph77%30.09 "Hg10 mi
12:00 AM61 °FClear.6 mph83%30.09 "Hg10 mi
11:30 PM
Tue, Aug 4
63 °FClear.6 mph77%30.09 "Hg10 mi
11:00 PM63 °FClear.3 mph77%30.09 "Hg10 mi
10:30 PM66 °FClear.2 mph73%30.09 "Hg10 mi
10:00 PM64 °FSunny.No wind73%30.09 "Hg10 mi
9:30 PM66 °FSunny.3 mph68%30.09 "Hg10 mi
9:00 PM68 °FSunny.5 mph64%30.09 "Hg10 mi
8:30 PM70 °FPassing clouds.6 mph64%30.07 "HgN/A
8:00 PM72 °FScattered clouds.5 mph61%30.07 "HgN/A
7:30 PM72 °FPassing clouds.8 mph61%30.07 "HgN/A
7:00 PM72 °FPartly sunny.12 mph61%30.07 "HgN/A
6:30 PM70 °FBroken clouds.12 mph64%30.07 "HgN/A
6:00 PM72 °FPartly sunny.12 mph61%30.07 "HgN/A
5:30 PM72 °FBroken clouds.10 mph65%30.07 "HgN/A
5:00 PM72 °FPartly sunny.13 mph65%30.07 "HgN/A
4:30 PM68 °FPartly sunny.12 mph78%30.07 "HgN/A
4:00 PM68 °FMore clouds than sun.12 mph78%30.04 "HgN/A
3:30 PM68 °FMostly cloudy.15 mph78%30.04 "HgN/A
3:00 PM68 °FMostly cloudy.12 mph78%30.04 "HgN/A
2:30 PM68 °FMostly cloudy.16 mph83%30.04 "HgN/A
2:00 PM68 °FMostly cloudy.16 mph83%30.04 "HgN/A
1:30 PM68 °FMostly cloudy.15 mph88%30.01 "HgN/A
1:00 PM70 °FMostly cloudy.16 mph83%30.01 "HgN/A
12:30 PM68 °FPartly sunny.14 mph88%30.01 "HgN/A
12:00 PM68 °FScattered clouds.13 mph88%30.01 "HgN/A
11:30 AM66 °FPartly sunny.10 mph94%30.01 "HgN/A
11:00 AM64 °FLight rain. Cloudy.9 mph94%30.01 "Hg4 mi
10:30 AM64 °FLight rain. Cloudy.9 mph94%30.01 "Hg6 mi
10:00 AM64 °FRain. Cloudy.8 mph94%30.01 "Hg5 mi
9:30 AM64 °FLight rain. Cloudy.8 mph88%29.98 "Hg5 mi
9:00 AM64 °FRain. Cloudy.12 mph88%29.95 "Hg4 mi
8:30 AM66 °FLight rain. Cloudy.17 mph78%29.92 "HgN/A
8:00 AM68 °FMild.15 mph69%29.95 "HgN/A
7:30 AM68 °FLight rain. Cloudy.6 mph69%29.89 "HgN/A
7:00 AM72 °FLight rain. Overcast.15 mph57%29.92 "HgN/A
6:30 AM73 °FMild.12 mph53%29.89 "HgN/A
6:00 AM72 °FClear.13 mph57%29.89 "Hg10 mi
5:30 AM72 °FClear.12 mph57%29.86 "Hg10 mi
5:00 AM70 °FClear.13 mph64%29.86 "Hg10 mi
4:30 AM72 °FClear.13 mph57%29.86 "Hg10 mi
4:00 AM72 °FClear.13 mph57%29.89 "Hg10 mi
Weather by CustomWeather, © 2015

See weather overviewHow to use our weather pages